When you browse on this site, cookies collect data to enhance your experience and personalize the content and advertising you see.
Visit our Privacy Policy to learn more. By continuing to use the site, you agree to this use of cookies and data.
  • In United Kingdom
  • List of Countries
  • For 7 days
  • Water Temperature
  • Weather Map
  • Weather Widgets
  • user-avatar
    Login

    Hourly Weather Jambol

    Today, 16 October, Wednesday

    Time Temperature Precipitation Wind Pressure Humidity
    00:00 +14°C° 0 mm 1 mps 752 mmHg 93%
    01:00 +14°C° 0 mm 1 mps 752 mmHg 92%
    02:00 +14°C° 0 mm 1 mps 752 mmHg 92%
    03:00 +14°C° 0 mm 1 mps 752 mmHg 92%
    04:00 +13°C° 0 mm 1 mps 752 mmHg 91%
    05:00 +13°C° 0 mm 1 mps 751 mmHg 91%
    06:00 +14°C° 0 mm 1 mps 752 mmHg 88%
    07:00 +14°C° 0 mm 1 mps 752 mmHg 86%
    08:00 +15°C° 0 mm 1 mps 752 mmHg 83%
    09:00 +16°C° 0 mm 1 mps 752 mmHg 75%
    10:00 +19°C° 0 mm 1 mps 752 mmHg 68%
    11:00 +20°C° 0 mm 2 mps 752 mmHg 60%
    12:00 +21°C° 0 mm 2 mps 752 mmHg 54%
    13:00 +23°C° 0 mm 2 mps 751 mmHg 47%
    14:00 +25°C° 0 mm 2 mps 751 mmHg 41%
    15:00 +24°C° 0 mm 2 mps 751 mmHg 46%
    16:00 +23°C° 0 mm 2 mps 751 mmHg 50%
    17:00 +21°C° 0 mm 2 mps 750 mmHg 54%
    18:00 +20°C° 0 mm 2 mps 751 mmHg 63%
    19:00 +18°C° 0 mm 2 mps 751 mmHg 72%
    20:00 +16°C° 0 mm 2 mps 751 mmHg 81%
    21:00 +16°C° 0 mm 1 mps 751 mmHg 84%
    22:00 +16°C° 0 mm 1 mps 751 mmHg 86%
    23:00 +15°C° 0 mm 1 mps 752 mmHg 89%

    Tomorrow, 17 October, Thursday

    Time Temperature Precipitation Wind Pressure Humidity
    00:00 +15°C° 0 mm 1 mps 752 mmHg 88%
    01:00 +15°C° 0 mm 1 mps 752 mmHg 88%
    02:00 +15°C° 0 mm 1 mps 752 mmHg 87%
    03:00 +15°C° 0 mm 1 mps 752 mmHg 87%
    04:00 +13°C° 0 mm 0 mps 751 mmHg 86%
    05:00 +13°C° 0 mm 0 mps 751 mmHg 85%
    06:00 +14°C° 0 mm 0 mps 751 mmHg 81%
    07:00 +15°C° 0 mm 0 mps 752 mmHg 77%
    08:00 +16°C° 0 mm 0 mps 752 mmHg 73%
    09:00 +17°C° 0 mm 0 mps 752 mmHg 65%
    10:00 +19°C° 0 mm 0 mps 752 mmHg 57%
    11:00 +23°C° 0 mm 1 mps 752 mmHg 49%
    12:00 +24°C° 0 mm 1 mps 752 mmHg 45%
    13:00 +25°C° 0 mm 1 mps 752 mmHg 41%
    14:00 +26°C° 0 mm 1 mps 752 mmHg 37%
    15:00 +25°C° 0 mm 1 mps 752 mmHg 40%
    16:00 +24°C° 0 mm 1 mps 752 mmHg 43%
    17:00 +23°C° 0 mm 1 mps 751 mmHg 46%
    18:00 +22°C° 0 mm 1 mps 752 mmHg 51%
    19:00 +21°C° 0 mm 1 mps 752 mmHg 56%
    20:00 +20°C° 0 mm 1 mps 752 mmHg 61%
    21:00 +19°C° 0 mm 1 mps 752 mmHg 63%
    22:00 +19°C° 0 mm 1 mps 752 mmHg 65%
    23:00 +18°C° 0 mm 1 mps 752 mmHg 68%

    Day after tomorrow, 18 October, Friday

    Time Temperature Precipitation Wind Pressure Humidity
    00:00 +18°C° 0 mm 1 mps 752 mmHg 69%
    01:00 +18°C° 0 mm 1 mps 752 mmHg 70%
    02:00 +16°C° 0 mm 1 mps 752 mmHg 71%
    03:00 +15°C° 0 mm 0 mps 752 mmHg 71%
    04:00 +15°C° 0 mm 0 mps 752 mmHg 71%
    05:00 +15°C° 0 mm 0 mps 752 mmHg 71%
    06:00 +15°C° 0 mm 0 mps 752 mmHg 68%
    07:00 +16°C° 0 mm 0 mps 752 mmHg 65%
    08:00 +17°C° 0 mm 0 mps 752 mmHg 63%
    09:00 +19°C° 0 mm 0 mps 752 mmHg 57%
    10:00 +20°C° 0 mm 0 mps 753 mmHg 51%
    11:00 +24°C° 0 mm 1 mps 753 mmHg 45%
    12:00 +25°C° 0 mm 1 mps 752 mmHg 42%
    13:00 +26°C° 0 mm 1 mps 752 mmHg 38%
    14:00 +26°C° 0 mm 1 mps 752 mmHg 35%
    15:00 +25°C° 0 mm 1 mps 752 mmHg 38%
    16:00 +25°C° 0 mm 2 mps 751 mmHg 41%
    17:00 +24°C° 0 mm 2 mps 751 mmHg 44%
    18:00 +21°C° 0 mm 2 mps 751 mmHg 50%
    19:00 +20°C° 0 mm 2 mps 751 mmHg 56%
    20:00 +18°C° 0 mm 2 mps 751 mmHg 62%
    21:00 +19°C° 0 mm 1 mps 752 mmHg 64%
    22:00 +18°C° 0 mm 1 mps 752 mmHg 66%
    23:00 +18°C° 0 mm 1 mps 752 mmHg 68%

    19 October, Saturday

    Time Temperature Precipitation Wind Pressure Humidity
    00:00 +16°C° 0 mm 1 mps 752 mmHg 69%
    01:00 +16°C° 0 mm 1 mps 752 mmHg 70%
    02:00 +16°C° 0 mm 1 mps 752 mmHg 71%
    03:00 +14°C° 0 mm 0 mps 752 mmHg 70%
    04:00 +14°C° 0 mm 0 mps 752 mmHg 70%
    05:00 +14°C° 0 mm 0 mps 752 mmHg 69%
    06:00 +15°C° 0 mm 0 mps 752 mmHg 66%
    07:00 +16°C° 0 mm 0 mps 752 mmHg 63%
    08:00 +16°C° 0 mm 0 mps 753 mmHg 61%
    09:00 +18°C° 0 mm 0 mps 753 mmHg 54%
    10:00 +22°C° 0 mm 1 mps 753 mmHg 48%
    11:00 +24°C° 0 mm 1 mps 753 mmHg 41%
    12:00 +25°C° 0 mm 1 mps 753 mmHg 38%
    13:00 +26°C° 0 mm 1 mps 752 mmHg 36%
    14:00 +26°C° 0 mm 1 mps 752 mmHg 33%
    15:00 +26°C° 0 mm 1 mps 752 mmHg 36%
    16:00 +25°C° 0 mm 1 mps 752 mmHg 39%
    17:00 +24°C° 0 mm 1 mps 752 mmHg 41%
    18:00 +22°C° 0 mm 1 mps 752 mmHg 47%
    19:00 +21°C° 0 mm 1 mps 752 mmHg 53%
    20:00 +19°C° 0 mm 1 mps 752 mmHg 58%
    21:00 +19°C° 0 mm 1 mps 753 mmHg 60%
    22:00 +18°C° 0 mm 1 mps 753 mmHg 63%
    23:00 +18°C° 0 mm 1 mps 753 mmHg 65%

    20 October, Sunday

    Time Temperature Precipitation Wind Pressure Humidity
    00:00 +16°C° 0 mm 1 mps 753 mmHg 66%
    01:00 +16°C° 0 mm 1 mps 753 mmHg 67%
    02:00 +16°C° 0 mm 1 mps 753 mmHg 68%
    03:00 +14°C° 0 mm 0 mps 753 mmHg 68%
    04:00 +14°C° 0 mm 0 mps 753 mmHg 68%
    05:00 +14°C° 0 mm 0 mps 753 mmHg 68%
    06:00 +15°C° 0 mm 0 mps 753 mmHg 65%
    07:00 +16°C° 0 mm 0 mps 753 mmHg 61%
    08:00 +16°C° 0 mm 0 mps 754 mmHg 58%
    09:00 +18°C° 0 mm 0 mps 754 mmHg 52%
    10:00 +22°C° 0 mm 1 mps 754 mmHg 46%
    11:00 +24°C° 0 mm 1 mps 754 mmHg 40%
    12:00 +25°C° 0 mm 1 mps 754 mmHg 37%
    13:00 +26°C° 0 mm 1 mps 754 mmHg 35%
    14:00 +27°C° 0 mm 1 mps 753 mmHg 33%
    15:00 +26°C° 0 mm 2 mps 753 mmHg 37%
    16:00 +24°C° 0 mm 2 mps 753 mmHg 41%
    17:00 +23°C° 0 mm 2 mps 753 mmHg 45%
    18:00 +21°C° 0 mm 2 mps 753 mmHg 53%
    19:00 +19°C° 0 mm 2 mps 753 mmHg 60%
    20:00 +18°C° 0 mm 2 mps 754 mmHg 68%
    21:00 +17°C° 0 mm 2 mps 754 mmHg 72%
    22:00 +16°C° 0 mm 1 mps 754 mmHg 75%
    23:00 +16°C° 0 mm 1 mps 755 mmHg 79%

    21 October, Monday

    Time Temperature Precipitation Wind Pressure Humidity
    00:00 +15°C° 0 mm 1 mps 754 mmHg 81%
    01:00 +15°C° 0 mm 1 mps 754 mmHg 83%
    02:00 +15°C° 0 mm 1 mps 754 mmHg 85%
    03:00 +14°C° 0 mm 1 mps 754 mmHg 85%
    04:00 +14°C° 0 mm 1 mps 754 mmHg 85%
    05:00 +14°C° 0 mm 1 mps 754 mmHg 85%
    06:00 +15°C° 0 mm 1 mps 754 mmHg 80%
    07:00 +15°C° 0 mm 1 mps 755 mmHg 76%
    08:00 +16°C° 0 mm 1 mps 755 mmHg 71%
    09:00 +19°C° 0 mm 1 mps 755 mmHg 62%
    10:00 +20°C° 0 mm 2 mps 755 mmHg 52%
    11:00 +23°C° 0 mm 2 mps 755 mmHg 43%
    12:00 +24°C° 0 mm 2 mps 755 mmHg 41%
    13:00 +25°C° 0 mm 3 mps 755 mmHg 40%
    14:00 +26°C° 0 mm 3 mps 755 mmHg 39%
    15:00 +24°C° 0 mm 3 mps 754 mmHg 44%
    16:00 +22°C° 0 mm 3 mps 754 mmHg 49%
    17:00 +21°C° 0 mm 3 mps 754 mmHg 54%
    18:00 +20°C° 0 mm 2 mps 754 mmHg 60%
    19:00 +18°C° 0 mm 2 mps 754 mmHg 65%
    20:00 +18°C° 0 mm 1 mps 754 mmHg 71%
    21:00 +18°C° 0 mm 1 mps 755 mmHg 73%
    22:00 +16°C° 0 mm 1 mps 755 mmHg 75%
    23:00 +16°C° 0 mm 1 mps 755 mmHg 77%
    Show more